If you wish to contribute or participate in the discussions about articles you are invited to join SKYbrary as a registered user

 Actions

Alfonso Bonilla Aragón International Airport

From SKYbrary Wiki

SKCL
Airport
ICAO: SKCL – IATA: CLO
Summary
Name Alfonso Bonilla Aragón International Airport
Region South America and Caribbean
Territory Colombia CO.gif
Location Palmira, Valle del Cauca Department
Serving Cali
Elevation 963.778 m <br />3,162 ft963.778 m <br />
Coordinates 3° 32' 38.26" N, 76° 23' 2.63" W
Runways
Designator Length Width Surface ROPS
1/19 3000 m9,842.52 ft <br /> 45 m147.638 ft <br /> ASP yes/yes


METAR
Observation SKCL 172100Z 36009KT 9000 VCSH SCT020 BKN100 28/20 Q1011 NOSIG RMK VCSH/NE A2987
Station Cali / Alfonso Bonillaaragon
Date/Time 17 April 2021 21:00:00
Wind direction 360°
Wind speed 09 kts
Lowest cloud amount scattered clouds
Temperature 28°C
Dew point 20°C
Humidity 61%
QNH 1011 hPa
Weather condition n/a

Alfonso Bonilla Aragón International Airport also known as Palmaseca International Airport is an airport located in Palmira, Colombia, serving Cali and its suburbs.

Climatology

Tropical savanna climate (Köppen climate classification Aw)

Maps

Terrain

Loading map...

Airport Layout

Loading map...


Accidents & Serious Incidents at or in vicinity of SKCL

None on SKYbrary